DELTA 1 DEB, 47114

Orbit data source: Space-Track

DELTA 1 DEB, 47114 is space debris in SSO originally from a launch on Tue, 06 Nov 1973 UTC launched from the Air Force Western Test Range (AFWTR). Debris objects in space refer to the collection of defunct objects orbiting the Earth. Examples of debris include non-operational satellites, rocket bodies, and fragments generated from explosions, collisions, or faulty payload assembly.

Loading next visibility...
Identifier
47114, 1973-086JF
Orbit
SSO
Country
Flag of USUS
Related business
Manufacturer
Unknown
Mission
Spacecraft
Bus & Motor
Unknown
Mass
Unknown
Launch date (UTC)
1973-11-06 (52 years ago)
Launch vehicle
Unknown
Launch site
Air Force Western Test Range (AFWTR)
Object type
Payload
Rocket body
Debris
Shape & HBR
Unknown shape, 0.1 m
Radar Cross Section
Small (<0.1 m²)

Expand to show TLE details & history
Last TLE update: 1 month ago

TLE from 1 month ago
0 DELTA 1 DEB
1 47114U 73086JF  26007.96620443  .00000008  00000-0  34113-3 0  9993
2 47114 101.5495 255.0670 0095352 110.3500 250.7843 12.46358158546459
Epoch: 2026-01-07T23:11Z
TLE epoch observation values (Epoch: 2026-01-07T23:11:20.062Z)
Latitude
-0.00011°
Longitude
159.70635°
Altitude
1,507.639 km
Speed
7.1 km/s
True Right ascension
17h 00m 16s
True Declination
0° 00' 00"
Sunlit
Object was in daylight at epoch
Visualization orbit readout
Latitude
Unknown
Longitude
Unknown
Altitude
Unknown
Speed
Unknown
Apparent Right ascension
Unknown
Apparent Declination
Unknown
Sunlit
N/A
Visualization observer readout
Local Sidereal Time
00:19:35
Azimuth
Unknown
Elevation
Unknown
Doppler factor
Unknown
Orbital elements
Apogee altitude
1,552.208 km
Perigee altitude
1,402.401 km
Semi-major axis
7,855.442 km
Eccentricity
0.00954
Inclination
101.5495°
RAAN
255.067°
Arg. of periapsis
110.35°
True anomaly
249.75661°
Mean anomaly
250.7843°
Eccentric anomaly
250.27005°
Mean motion
3.11736 °/min
Orbital period
115.48 mins
BSTAR
0.00034113
Loading maneuver chart data...
Computing Atmospheric mass density...
Loading historical data...
Loading historical data...
Loading historical data...
Loading historical data...
Loading historical data...
Loading historical data...
Loading historical data...

Documentation

Showing up to 5 results
|